Location: Grand Moustoir
(47.8355°N, 3.3120°W)
Time: 21:54:59
(UTC+00:00)

Cosmos 1980 Rocket - Pass Details

Date: 20 January 2020
Orbit: 830 x 848 km, 71.0° (Epoch: 25 February)

Event Time Altitude Azimuth Distance (km) Brightness Sun altitude
Rises 04:46:18 0° 173° (S) 3,397 5.4 -31.1°
Reaches altitude 10° 04:49:01 10° 163° (SSE) 2,466 4.7 -30.7°
Maximum altitude 04:53:49 29° 104° (ESE) 1,495 4.0 -29.9°
Drops below altitude 10° 04:58:39 10° 46° (NE) 2,474 5.2 -29.1°
Sets 05:01:22 0° 36° (NE) 3,411 5.8 -28.6°
